Terminal Aerodrome Forecast
Issued by NWS Charleston, WV

Current Version | Previous Version | Graphics & Text | Print | Product List | Glossary Off
Versions: 1 2 3 4 5 6 7 8 9 10 11 12 13 14 15 16 17

000
FTUS41 KRLX 272300
TAFBKW
TAF
KBKW 272325Z 2800/2824 16004KT P6SM BKN040 BKN080
     FM280900 24005KT P6SM -RA OVC040
     FM281200 VRB03KT 5SM -RA BR OVC030
     FM281500 23004KT 2SM -RA BR OVC006
     FM282100 30004KT 2SM -RA BR OVC008=

USA.gov is the U.S. government's official web portal to all federal, state and local government web resources and services.